Weather Roundup
Issued by NWS Chicago, IL

Home | Current Version | Previous Version | Graphics & Text | Print | Product List | Glossary On
Versions: 1 2 3 4 5 6 7 8 9 10 11 12 13 14 15 16 17 18 19 20 21 22 23 24 25 26 27 28 29 30 31 32 33 34 35 36 37 38 39 40 41 42 43 44 45 46 47 48 49 50
000
NZUS59 KLOT 262108
HRRLOT

CHICAGO AREA WEATHER ROUNDUP
NATIONAL WEATHER SERVICE CHICAGO/ROMEOVILLE IL
400 PM CDT FRI AUG 26 2016

NOTE: "FAIR" INDICATES FEW OR NO CLOUDS BELOW 12,000 FEET WITH NO
SIGNIFICANT WEATHER AND/OR OBSTRUCTIONS TO VISIBILITY.

* THESE STATIONS ARE NOT UNDER NWS QUALITY CONTROL. THEY ALSO MAY NOT
  REPORT WEATHER SUCH AS PRECIPITATION OR FOG.

ILZ005-006-012>014-019>023-262200-
NORTHEAST ILLINOIS

CITY           SKY/WX    TMP DP  RH WIND       PRES   REMARKS
OHARE          CLOUDY    78  60  53 NE8       30.11F
MIDWAY         CLOUDY    77  61  57 E10       30.11F
AURORA         CLOUDY    82  63  52 N6        30.11S HX  83
LANSING*       MOSUNNY   76  68  78 E9        30.12S
JOLIET*        CLOUDY    83  67  58 E7        30.10S HX  86
WAUKEGAN       CLOUDY    73  60  63 E7        30.12F
DUPAGE AIRPORT CLOUDY    82  60  47 SE5       30.10F HX  82
WHEELING       CLOUDY    76  57  51 E8        30.14S
KANKAKEE*      CLOUDY    78  69  73 NE3       30.11R HX  80
MORRIS*        CLOUDY    81  66  61 CALM      30.09S HX  83
LEWIS AIRPORT* CLOUDY    81  68  65 NE7       30.10F HX  84
NORTHERLY ISL    N/A     73  64  73 NE7         N/A
$$

WIZ051-052-058>065-066-070>072-262200-
SOUTHEAST WISCONSIN

CITY           SKY/WX    TMP DP  RH WIND       PRES   REMARKS
MILWAUKEE      PTSUNNY   74  57  55 E9        30.13F
KENOSHA*       CLOUDY    76  62  62 E12       30.13F
RACINE*        CLOUDY    75  59  57 E9        30.14F
BURLINGTON     MOSUNNY   76  56  50 CALM      30.12F
WAUKESHA       SUNNY     72  57  60 CALM      30.15F
$$

INZ001>003-010>013-019-020-262200-
NORTHWEST INDIANA

CITY           SKY/WX    TMP DP  RH WIND       PRES   REMARKS
GARY*          PTSUNNY   77  68  73 N8        30.12F
MICHIGAN CITY* NOT AVBL
RENSSELAER*    NOT AVBL
VALPARAISO     CLOUDY    79  68  69 NE6       30.12F HX  81
$$

LMZ740>746-262200-
SOUTHERN LAKE MICHIGAN

STATION/POSITION TIME  SKY/WX   TEMP WIND        PRES    VSBY
                                AIR  DIR/SP/G
                 (UTC)          (F)  (DEG/KT/KT) (MB)    (MI)
HARRISON CRIB    2000            73   50/ 10/ 10   N/A
BURNHAM HARBOR   2100            73   30/  6/  7   N/A
CALUMET HARBOR   2000            73   10/ 10/ 12 1019.8F
BURNS HARBOR     2000            74   40/ 10/ 12 1020.3F
MICHIGAN CITY    2000            73   10/ 11/ 12   N/A
$$

ABBREVIATIONS USED IN REMARKS
   TC - TEMPERATURE IN CELSIUS
  WCI - WIND CHILL INDEX
   HX - HEAT INDEX
  VSB - VISIBILITY
$$




USA.gov is the U.S. government's official web portal to all federal, state and local government web resources and services.